カタログに戻る

STARLINK-32879

運用中通信VLEO
NORAD 62957·PAYLOAD·🇺🇸 United States

打ち上げ Feb 11, 2025 から Vandenberg Space Force Base

Loading…

次のパス (今後24時間)

TLE

最新Source: CelesTrak SupGP

元期: Sep 15, 2026, 02:27 UTC

1 62957C 25029K   26258.10256944 -.00022478  00000+0 -72289-3 0  2584
2 62957  53.1583  71.4154 0001224  85.1616 325.3158 15.31710410    15

AllMySatでSTARLINK-32879をリアルタイム追跡

Download on the App Store